Content
SEND FEEDBACK

Daily
Averages
Monthly
Summary
United States of America

ST. LOUIS, MISSOURI


Home > North America > United States > Missouri
Elevation: 535 feet     Latitude: 38 45N     Longitude: 090 22W

WEATHER
 
SELECT A DAY
Number of Records: 198,925;   Date Range: 1/1/95 - 9/28/14
 
SHARE

PRINT THIS DATA

[ ← Previous Day ]
WEATHER ALMANAC - JANUARY 27, 2013
[ Next Day → ]
[ °C ]   °F
Weather ElementAverageHighLow
Temperature39.6 °F55 °F (11:54 pm)30 °F (1:54 am)
Dewpoint34.5 °F51.1 °F (11:54 pm)17.1 °F (1:54 am)
Humidity82.6 %93 % (6:23 pm)56 % (4:54 am)
Barometer30.11 in30.31 in (1:54 am)29.94 in (5:16 pm)
Wind Speed6.7 mph11.5 mph (6:54 pm)
Wind Gust20.7 mph (7:54 pm)
Weather ElementAverage
Visibility6.8 mi
Wind DirectionESE (123.2 °)

Weather ElementTotal
Precipitation0.36 in
Heating Degree Days22.5 (Base 65)
Averaged from 37 records on January 27, 2013
WEATHER CONDITIONS BREAKOUT
WIND DIRECTION BREAKOUT
WEATHER BY HOUR - JANUARY 27, 2013
[ °C ]   °F
Local TimeTemperatureDewpointHumidityBarometerVisibilityWind DirectionWind SpeedGust SpeedPrecipitationEventsConditions
1:54 AM30.0 °F17.1 °F59 %30.31 in10.0 miEast (100°)5.8 mphClear
2:54 AM30.9 °F17.1 °F57 %30.31 in10.0 miCalmClear
3:54 AM30.9 °F18.0 °F59 %30.27 in10.0 miSE (130°)4.6 mphScattered Clouds
4:54 AM32.0 °F18.0 °F56 %30.26 in10.0 miESE (110°)4.6 mphOvercast
5:54 AM30.9 °F23.0 °F72 %30.25 in8.0 miESE (110°)5.8 mph0.01 inOvercast
6:08 AM30.2 °F24.8 °F80 %30.22 in7.0 miESE (110°)6.9 mph0.00 inRainLight Freezing Rain
6:52 AM30.2 °F24.8 °F80 %30.20 in9.0 miESE (120°)6.9 mph0.00 inOvercast
6:54 AM30.9 °F25.0 °F79 %30.23 in9.0 miESE (120°)6.9 mph0.00 inOvercast
7:25 AM32.0 °F26.6 °F80 %30.21 in7.0 miSE (130°)6.9 mph0.01 inRainLight Freezing Rain
7:54 AM32.0 °F27.0 °F82 %30.25 in7.0 miCalm0.01 inRainLight Freezing Rain
8:54 AM33.1 °F28.0 °F82 %30.22 in2.5 miEast (90°)6.9 mph0.01 inRainLight Freezing Rain
9:11 AM33.8 °F28.4 °F81 %30.19 in3.0 miSE (130°)5.8 mph0.01 inRainLight Freezing Rain
9:26 AM33.8 °F28.4 °F81 %30.19 in4.0 miEast (100°)5.8 mph0.01 inRainLight Rain
9:54 AM33.1 °F30.0 °F89 %30.22 in3.0 miVariable4.6 mph0.02 inRainLight Rain
10:13 AM33.8 °F30.2 °F87 %30.19 in2.5 miEast (100°)4.6 mph0.01 inRainLight Rain
10:22 AM33.8 °F30.2 °F87 %30.18 in1.2 miEast (100°)5.8 mph0.02 inRainLight Rain
10:29 AM33.8 °F30.2 °F87 %30.17 in1.2 miESE (110°)6.9 mph0.03 inRainRain
10:43 AM33.8 °F30.2 °F87 %30.17 in2.0 miESE (110°)6.9 mph0.04 inRainLight Rain
10:54 AM34.0 °F30.9 °F89 %30.18 in2.5 miESE (110°)6.9 mph0.05 inRainLight Rain
11:54 AM35.1 °F33.1 °F92 %30.13 in2.5 miESE (110°)9.2 mph0.11 inRainLight Rain
12:54 PM37.9 °F35.1 °F89 %30.09 in3.0 miSE (140°)5.8 mph0.01 inOvercast
1:54 PM39.9 °F36.0 °F86 %30.05 in4.0 miSE (140°)6.9 mphOvercast
2:54 PM42.1 °F39.0 °F89 %30.02 in5.0 miSE (130°)5.8 mph0.00 inOvercast
3:52 PM44.6 °F41.0 °F87 %29.98 in6.0 miVariable3.5 mph0.00 inOvercast
3:54 PM45.0 °F41.0 °F86 %30.00 in6.0 miVariable3.5 mph0.00 inOvercast
4:54 PM46.9 °F44.1 °F90 %29.96 in7.0 miSSE (150°)8.1 mph17.3 mph0.01 inRainLight Rain
5:16 PM48.2 °F44.6 °F87 %29.94 in10.0 miSSE (160°)8.1 mph0.00 inMostly Cloudy
5:54 PM48.9 °F46.0 °F90 %29.96 in10.0 miSouth (190°)9.2 mph16.1 mph0.00 inMostly Cloudy
6:23 PM48.2 °F46.4 °F93 %29.94 in10.0 miSouth (190°)10.4 mph16.1 mphMostly Cloudy
6:54 PM50.0 °F46.0 °F86 %29.97 in10.0 miSouth (190°)11.5 mph18.4 mphOvercast
7:54 PM50.0 °F46.9 °F89 %29.97 in10.0 miSouth (190°)11.5 mph20.7 mphMostly Cloudy
8:20 PM51.8 °F46.4 °F82 %29.94 in10.0 miSSW (200°)10.4 mph19.6 mphOvercast
8:54 PM51.1 °F46.9 °F86 %29.97 in10.0 miSSW (200°)10.4 mphOvercast
9:31 PM51.8 °F48.2 °F88 %29.96 in9.0 miSSW (200°)6.9 mphOvercast
9:54 PM52.0 °F48.0 °F86 %29.97 in9.0 miSouth (180°)8.1 mphOvercast
10:54 PM53.1 °F50.0 °F89 %29.97 in10.0 miSSW (210°)6.9 mph0.00 inOvercast
11:54 PM55.0 °F51.1 °F86 %29.96 in10.0 miSSW (200°)9.2 mphOvercast
Hourly data recorded from KSUS, located miles away from St. Louis, Missouri







STORIES FROM OUR PARTNERS